Flag for Ireland Weather past 2 weeks in Galway, Ireland

Now
39 °F

Passing clouds.


Feels Like: 36 °F
Forecast: 42 / 51 °F
Wind: 5 mph from Northwest

Location: Shannon Airport

Current Time: Apr 28, 2015 at 3:34:21 AM

Latest Report: Apr 28, 2015 at 3:00 AM


Visibility: N/A

Pressure: 29.98 "Hg

Humidity: 75%

Dew point: 32 °F

Location of GalwayLocation

Historic Weather in Galway — Graph

°F

Galway temperature yesterday

Maximum temperature yesterday: 48 °F (at 3:30 PM)
Minimum temperature yesterday: 36 °F (at 1:30 AM)
Average temperature yesterday: 41 °F

Past Weeks' High & Low Weather Summary

 TemperatureHumidityPressure
High68 °F (Apr 22, 5:00 PM)100% (Apr 21, 7:00 AM)30.60 "Hg (Apr 21, 7:00 AM)
Low32 °F (Apr 26, 5:30 AM)30% (Apr 22, 5:00 PM)29.56 "Hg (Apr 25, 3:30 AM)
Average50 °F71%30.12 "Hg
* Reported Apr 13 2:00 AM — Apr 28 2:30 AM, Galway, Weather by CustomWeather, © 2015

Note: Actual official high and low records may vary slightly from our data, if they occured in-between our weather recording intervals... More about our weather records

Advertising

Galway weather history for previous 24 hours

 ConditionsComfort  
Time TempWeatherWind HumidityBarometerVisibility
2:30 AM
Tue, Apr 28
39 °FPassing clouds.10 mph81%29.98 "HgN/A
2:00 AM39 °FPassing clouds.12 mph81%29.98 "HgN/A
1:30 AM39 °FPassing clouds.8 mph81%30.01 "HgN/A
1:00 AM39 °FPassing clouds.9 mph75%29.98 "HgN/A
12:30 AM39 °FPassing clouds.12 mph75%29.98 "HgN/A
12:00 AM39 °FPassing clouds.8 mph75%29.98 "HgN/A
11:30 PM
Mon, Apr 27
39 °FPassing clouds.15 mph81%29.98 "HgN/A
11:00 PM39 °FPassing clouds.10 mph75%29.98 "HgN/A
10:30 PM39 °FPassing clouds.13 mph70%29.98 "HgN/A
10:00 PM41 °FPassing clouds.16 mph76%29.98 "HgN/A
9:30 PM37 °FSprinkles. Partly sunny.21 mph81%29.95 "Hg3 mi
9:00 PM39 °FPassing clouds.9 mph81%29.95 "HgN/A
8:30 PM41 °FSprinkles. Scattered clouds.12 mph76%29.95 "HgN/A
8:00 PM41 °FPassing clouds.9 mph76%29.95 "HgN/A
7:30 PM43 °FScattered clouds.16 mph71%29.92 "HgN/A
7:00 PM43 °FScattered showers. Broken clouds.24 mph71%29.92 "HgN/A
6:30 PM41 °FPassing clouds.13 mph81%29.92 "HgN/A
6:00 PM45 °FRain showers. Partly sunny.28 mph61%29.92 "Hg6 mi
5:30 PM48 °FScattered showers. Scattered clouds.22 mph58%29.89 "HgN/A
5:00 PM45 °FScattered clouds.21 mph57%29.89 "HgN/A
4:30 PM46 °FScattered clouds.20 mph57%29.89 "HgN/A
4:00 PM46 °FScattered clouds.23 mph57%29.92 "HgN/A
3:30 PM48 °FScattered clouds.20 mph54%29.89 "HgN/A
3:00 PM46 °FPartly sunny.25 mph57%29.89 "HgN/A
2:30 PM46 °FPartly sunny.22 mph53%29.89 "HgN/A
2:00 PM46 °FPartly sunny.22 mph57%29.89 "HgN/A
1:30 PM46 °FBroken clouds.24 mph57%29.89 "HgN/A
1:00 PM45 °FBroken clouds.20 mph66%29.89 "HgN/A
12:30 PM45 °FScattered clouds.15 mph81%29.89 "HgN/A
12:00 PM43 °FSprinkles. Partly sunny.22 mph81%29.89 "Hg4 mi
11:30 AM43 °FSprinkles. Partly sunny.18 mph81%29.89 "Hg6 mi
11:00 AM43 °FScattered clouds.18 mph87%29.89 "HgN/A
10:30 AM41 °FSprinkles. Partly sunny.17 mph87%29.89 "Hg4 mi
10:00 AM43 °FScattered clouds.12 mph87%29.89 "HgN/A
9:30 AM41 °FSprinkles. Broken clouds.12 mph87%29.92 "HgN/A
9:00 AM41 °FSprinkles. Broken clouds.13 mph87%29.92 "HgN/A
8:30 AM41 °FBroken clouds.9 mph81%29.92 "HgN/A
8:00 AM41 °FScattered clouds.12 mph81%29.92 "HgN/A
7:30 AM39 °FPassing clouds.7 mph87%29.92 "HgN/A
7:00 AM37 °FPassing clouds.5 mph93%29.92 "HgN/A
6:30 AM39 °FPartly cloudy.3 mph87%29.92 "HgN/A
6:00 AM39 °FPartly cloudy.7 mph87%29.92 "HgN/A
5:30 AM39 °FPassing clouds.7 mph87%29.92 "HgN/A
5:00 AM37 °FPassing clouds.6 mph87%29.92 "HgN/A
4:30 AM39 °FPassing clouds.2 mph81%29.92 "HgN/A
4:00 AM37 °FPassing clouds.3 mph87%29.95 "HgN/A
3:30 AM37 °FPassing clouds.1 mph81%29.95 "HgN/A
3:00 AM37 °FPassing clouds.6 mph87%29.95 "HgN/A
Weather by CustomWeather, © 2015

See weather overviewHow to use our weather pages